Location: Guferjoch
(46.7462°N, 8.4506°E)
Time: 12:53:04
(UTC+00:00)

Cosmos 1697 Rocket - Pass Details

Date: 14 July 2020
Orbit: 834 x 842 km, 71.0° (Epoch: 06 August)

Event Time Altitude Azimuth Distance (km) Brightness Sun altitude
Rises 00:24:36 0° 337° (NNW) 3,399 6.7 -20.6°
Reaches altitude 10° 00:27:17 10° 347° (NNW) 2,460 6.0 -20.5°
Maximum altitude 00:32:25 35° 52° (NE) 1,332 4.2 -20.3°
Drops below altitude 10° 00:37:31 10° 118° (ESE) 2,443 5.0 -20.0°
Sets 00:40:09 0° 127° (SE) 3,372 5.6 -19.9°
